This demonstration page uses our WeatherBlox Daily Observations layout. Learn more.

Left ArrowRight Arrow

39.01783, -85.05884

Hourly Observations for October 1, 2016

Temp ( °F °C ) Dew Point ( °F °C ) Humidity (%) Winds ( mph kmh ) Pressure ( in mb ) Visibility ( mi km ) Precip ( " mm )
12:52 am 00:52 Cloudy 57 13.9 54 12.2 90 90 SSE 3 6 30.01 1016 10 16 0.00 0.00
1:52 am 01:52 Cloudy 56 13.3 53 11.7 90 90 S 3 6 30.01 1016 10 16 0.00 0.00
2:52 am 02:52 Cloudy 56 13.3 54 12.2 93 93 S 5 7 30.01 1016 10 16 0.02 0.51
3:52 am 03:52 Cloudy with Rain 56 13.3 55 12.8 97 97 SSW 5 7 30.01 1016 4 6 0.00 0.03
4:13 am 04:13 Cloudy 55 13 54 12 94 94 SE 5 7 30.03 1017 8 13 0.02 0.51
4:44 am 04:44 Cloudy 55 13 55 13 100 100 SE 5 7 30.00 1016 9 14 0.00 0.00
4:52 am 04:52 Cloudy 56 13.3 55 12.8 97 97 SSE 7 11 30.00 1016 9 14 0.02 0.51
4:59 am 04:59 Cloudy 55 13 55 13 100 100 S 3 6 30.03 1017 8 13 0.00 0.00
5:52 am 05:52 Cloudy with Mist and Fog 56 13.3 55 12.8 97 97 S 7 11 30.01 1016 6 10 0.00 0.00
6:52 am 06:52 Cloudy with Mist and Fog 54 12.2 54 12.2 100 100 S 5 7 30.01 1016 5 8 0.00 0.00
7:17 am 07:17 Mostly Cloudy with Mist and Fog 54 12 54 12 100 100 SSW 3 6 30.03 1017 5 8 0.00 0.00
7:35 am 07:35 Mostly Cloudy with Mist and Fog 52 11 52 11 100 100 SSE 5 7 30.03 1017 1 2 0.00 0.00
7:39 am 07:39 Mostly Cloudy with Mist and Fog 52 11 52 11 100 100 SSE 5 7 30.03 1017 4 6 0.00 0.00
7:52 am 07:52 Mostly Cloudy with Mist and Fog 52 11.1 51 10.6 97 97 SE 6 9 30.03 1017 4 6 0.00 0.00
8:52 am 08:52 Mostly Cloudy with Mist and Fog 56 13.3 55 12.8 97 97 S 7 11 30.04 1017 5 8 0.00 0.00
9:46 am 09:46 Mostly Cloudy 57 14 55 13 94 94 S 9 15 30.06 1018 8 13 0.00 0.00
9:52 am 09:52 Mostly Cloudy 57 13.9 55 12.8 93 93 S 8 13 30.04 1017 8 13 0.00 0.00
10:47 am 10:47 Cloudy 59 15 54 12 82 82 S 9 15 30.06 1018 10 16 0.00 0.00
10:52 am 10:52 Cloudy 59 15 54 12.2 83 83 S 9 15 30.05 1018 10 16 0.00 0.00
11:52 am 11:52 Cloudy 60 15.6 55 12.8 84 84 S 3 6 30.05 1018 10 16 0.00 0.00
12:52 pm 12:52 Cloudy 62 16.7 56 13.3 80 80 S 7 11 30.04 1017 10 16 0.00 0.00
1:52 pm 13:52 Mostly Cloudy 65 18.3 56 13.3 73 73 SSW 8 13 30.02 1017 10 16 0.00 0.00
2:52 pm 14:52 Mostly Cloudy 65 18.3 55 12.8 70 70 SSW 8 13 30.00 1016 10 16 0.00 0.00
3:52 pm 15:52 Mostly Cloudy 65 18.3 55 12.8 70 70 SW 5 7 30.00 1016 10 16 0.00 0.00
4:52 pm 16:52 Mostly Cloudy 66 18.9 56 13.3 70 70 SW 5 7 30.00 1016 10 16 0.00 0.00
5:52 pm 17:52 Mostly Cloudy 67 19.4 57 13.9 71 71 S 7 11 29.99 1016 10 16 0.00 0.00
6:52 pm 18:52 Mostly Cloudy 64 17.8 57 13.9 78 78 SSE 6 9 29.99 1016 10 16 0.00 0.00
7:52 pm 19:52 Mostly Cloudy 59 15 54 12 82 82 SW 5 7 30.00 1016 10 16 0.00 0.00
8:52 pm 20:52 Mostly Cloudy 60 15.6 57 13.9 90 90 S 3 6 30.01 1016 10 16 0.00 0.00
9:52 pm 21:52 Mostly Cloudy 60 15.6 57 13.9 90 90 S 9 15 30.01 1016 10 16 0.00 0.00
10:52 pm 22:52 Mostly Cloudy 60 15.6 58 14.4 93 93 SSW 10 17 30.01 1016 10 16 0.00 0.00
11:09 pm 23:09 Cloudy 61 16 59 15 94 94 SSW 9 15 30.03 1017 9 14 0.00 0.00
11:18 pm 23:18 Cloudy 61 16 59 15 94 94 SSW 9 15 30.03 1017 9 14 0.00 0.00
11:52 pm 23:52 Cloudy 60 15.6 59 15 96 96 SSW 8 13 30.02 1017 9 14 0.00 0.00

Powered by AerisWeather